Location: Caltech
(34.1382°N, 118.1253°W)
Time: 14:54:28
(UTC-07:00)

Transit 2A - Visible Passes

Search period start: 05 May 2016 00:00
Search period end: 15 May 2016 00:00
Orbit: 594 x 966 km, 66.7° (Epoch: 04 May)

Date Brightness Start Highest point End Pass type
(mag) Time Alt. Az. Time Alt. Az. Time Alt. Az.
05 May 7.2 21:19:15 10° N 21:25:04 38° ENE 21:27:13 30° E visible
05 May 7.7 23:02:40 10° NW 23:07:44 33° W 23:07:44 33° W visible
06 May 7.6 20:45:39 10° N 20:50:56 28° NE 20:54:29 17° E visible
06 May 7.0 22:28:22 10° NW 22:34:25 48° WSW 22:35:01 47° SW visible
07 May 8.0 20:12:13 10° N 20:16:45 20° NE 20:21:20 10° E visible
07 May 6.6 21:54:14 10° NNW 22:00:32 70° WSW 22:02:20 47° S visible
08 May 6.4 21:20:15 10° NNW 21:26:37 84° ENE 21:29:43 33° SSE visible
08 May 8.7 23:06:14 10° WNW 23:09:06 13° WSW 23:10:15 13° WSW visible
09 May 6.6 20:46:23 10° NNW 20:52:37 59° ENE 20:57:10 19° SE visible
09 May 8.3 22:30:55 10° WNW 22:35:24 20° WSW 22:37:42 17° SW visible
10 May 7.1 20:12:37 10° NNW 20:18:34 42° ENE 20:24:33 10° SE visible
10 May 7.9 21:56:15 10° NW 22:01:39 30° WSW 22:05:12 18° SSW visible
11 May 7.4 21:21:53 10° NW 21:27:50 43° WSW 21:32:46 15° S visible
12 May 6.9 20:47:42 10° NNW 20:53:59 63° WSW 21:00:13 10° SSE visible
13 May 6.6 20:13:41 10° NNW 20:20:04 89° WSW 20:26:25 10° SSE visible
13 May 8.9 22:00:20 10° W 22:02:29 12° W 22:04:37 10° WSW visible
14 May 8.7 21:24:38 10° WNW 21:28:47 18° WSW 21:32:56 10° SW visible
